This is the latest recevied weather packets stored in our database for station/object KB4RFE. If no packets are shown the sender has not sent any weather packets the latest 10 day(s).
| Time | Temp. | Humidity | Pressure | Rain* | Wind** | Luminosity | Snow |
|---|---|---|---|---|---|---|---|
| 1788633262 | 31.67° C | 76% | 1014.4 hPa | 0 mm | - | 786 W/m² | - |
| 1788632957 | 31.67° C | 77% | 1014.5 hPa | 0 mm | - | 795 W/m² | - |
| 1788632656 | 31.67° C | 78% | 1014.5 hPa | 0 mm | - | 832 W/m² | - |
| 1788632352 | 31.67° C | 76% | 1014.7 hPa | 0 mm | - | 839 W/m² | - |
| 1788632052 | 31.67° C | 78% | 1014.5 hPa | 0 mm | - | 847 W/m² | - |
| 1788631751 | 31.67° C | 77% | 1014.8 hPa | 0 mm | - | 878 W/m² | - |
| 1788631449 | 31.67° C | 77% | 1014.6 hPa | 0 mm | - | 847 W/m² | - |
| 1788631141 | 31.67° C | 79% | 1014.6 hPa | 0 mm | - | 887 W/m² | - |
| 1788630841 | 31.67° C | 78% | 1014.7 hPa | 0 mm | - | 833 W/m² | - |
| 1788630541 | 31.67° C | 76% | 1014.8 hPa | 0 mm | - | 837 W/m² | - |
| 1788630237 | 31.67° C | 77% | 1014.9 hPa | 0 mm | - | 825 W/m² | - |
| 1788629932 | 31.67° C | 77% | 1014.9 hPa | 0 mm | - | 825 W/m² | - |
| 1788629628 | 31.67° C | 77% | 1015.1 hPa | 0 mm | - | 495 W/m² | - |
| 1788629323 | 31.67° C | 77% | 1015.4 hPa | 0 mm | - | 883 W/m² | - |
| 1788629021 | 31.67° C | 77% | 1015.4 hPa | 0 mm | - | 712 W/m² | - |
| 1788628717 | 32.22° C | 77% | 1015.3 hPa | 0 mm | - | 351 W/m² | - |
| 1788628414 | 31.67° C | 77% | 1015.2 hPa | 0 mm | - | 850 W/m² | - |
| 1788628110 | 31.67° C | 75% | 1015.4 hPa | 0 mm | - | 818 W/m² | - |
| 1788627806 | 32.22° C | 76% | 1015.4 hPa | 0 mm | - | 867 W/m² | - |
| 1788627505 | 32.22° C | 76% | 1015.5 hPa | 0 mm | - | 955 W/m² | - |
| 1788627201 | 32.22° C | 74% | 1015.6 hPa | 0 mm | - | 885 W/m² | - |
| 1788626900 | 32.78° C | 74% | 1015.8 hPa | 0 mm | - | 900 W/m² | - |
| 1788626595 | 32.78° C | 73% | 1015.8 hPa | 0 mm | - | 828 W/m² | - |
| 1788626291 | 33.33° C | 71% | 1015.8 hPa | 0 mm | - | 829 W/m² | - |
| 1788625987 | 33.33° C | 70% | 1016.1 hPa | 0 mm | - | 853 W/m² | - |
* Rain latest hour (hover to see other rain measurements)
** Current wind speed in m/s (hover to see current wind gust speed)